| time (UTC) | temp C | wind direction | speed KPH | gust KPH | rain 1hr cm | rain 24hr cm | rain mn cm | humidity % | barometer mb |
| 20260506005005 | 12 | 210 | 25.7 | 51.5 | 0.00 | 0.00 | 0.00 | 45 | 1010.9 |
| 20260506004505 | 12 | 192 | 32.2 | 48.3 | 0.00 | 0.00 | 0.00 | 44 | 1010.6 |
| 20260506004005 | 12 | 180 | 25.7 | 45.1 | 0.00 | 0.00 | 0.00 | 43 | 1010.4 |
| 20260506003505 | 13 | 182 | 22.5 | 38.6 | 0.00 | 0.00 | 0.00 | 42 | 1010.1 |
| 20260506003005 | 13 | 182 | 27.4 | 38.6 | 0.00 | 0.00 | 0.00 | 39 | 1010.1 |
| 20260506002505 | 13 | 191 | 20.9 | 33.8 | 0.00 | 0.00 | 0.00 | 33 | 1010.0 |
| 20260506002004 | 14 | 211 | 25.7 | 33.8 | 0.00 | 0.00 | 0.00 | 32 | 1010.0 |
| 20260506001005 | 15 | 209 | 22.5 | 32.2 | 0.00 | 0.00 | 0.00 | 28 | 1010.0 |
| 20260506000505 | 15 | 211 | 22.5 | 32.2 | 0.00 | 0.00 | 0.00 | 28 | 1009.9 |
| 20260506000005 | 15 | 200 | 20.9 | 32.2 | 0.00 | 0.00 | 0.00 | 29 | 1009.9 |
| 20260505235504 | 15 | 191 | 25.7 | 32.2 | 0.00 | 0.00 | 0.00 | 29 | 1009.8 |
| 20260505234505 | 15 | 193 | 20.9 | 38.6 | 0.00 | 0.00 | 0.00 | 27 | 1009.7 |
| 20260505233505 | 15 | 182 | 25.7 | 38.6 | 0.00 | 0.00 | 0.00 | 28 | 1009.6 |
| 20260505233005 | 15 | 183 | 24.1 | 37.0 | 0.00 | 0.00 | 0.00 | 27 | 1009.6 |
| 20260505232505 | 15 | 212 | 22.5 | 37.0 | 0.00 | 0.00 | 0.00 | 27 | 1009.6 |
| 20260505231505 | 15 | 214 | 19.3 | 29.0 | 0.00 | 0.00 | 0.00 | 27 | 1009.4 |
| 20260505231005 | 15 | 224 | 19.3 | 29.0 | 0.00 | 0.00 | 0.00 | 27 | 1009.4 |
| 20260505230505 | 15 | 213 | 20.9 | 32.2 | 0.00 | 0.00 | 0.00 | 28 | 1010.0 |
| 20260505230005 | 15 | 196 | 24.1 | 32.2 | 0.00 | 0.00 | 0.00 | 27 | 1010.0 |
| 20260505225505 | 15 | 231 | 16.1 | 33.8 | 0.00 | 0.00 | 0.00 | 30 | 1010.0 |
| 20260505225005 | 16 | 203 | 22.5 | 33.8 | 0.00 | 0.00 | 0.00 | 29 | 1010.0 |
| 20260505224505 | 16 | 205 | 27.4 | 32.2 | 0.00 | 0.00 | 0.00 | 29 | 1009.9 |
| 20260505223505 | 16 | 186 | 22.5 | 32.2 | 0.00 | 0.00 | 0.00 | 30 | 1010.3 |
| 20260505223005 | 16 | 198 | 20.9 | 32.2 | 0.00 | 0.00 | 0.00 | 29 | 1010.3 |
| 20260505222505 | 15 | 216 | 17.7 | 32.2 | 0.00 | 0.00 | 0.00 | 29 | 1010.2 |
| 20260505221505 | 15 | 209 | 25.7 | 32.2 | 0.00 | 0.00 | 0.00 | 28 | 1010.5 |
| 20260505221005 | 16 | 216 | 24.1 | 32.2 | 0.00 | 0.00 | 0.00 | 27 | 1010.5 |
| 20260505220004 | 16 | 222 | 22.5 | 32.2 | 0.00 | 0.00 | 0.00 | 26 | 1010.5 |
| 20260505215505 | 16 | 210 | 11.3 | 33.8 | 0.00 | 0.00 | 0.00 | 24 | 1010.8 |
| 20260505214005 | 15 | 226 | 12.9 | 33.8 | 0.00 | 0.00 | 0.00 | 25 | 1011.4 |
| 20260505213505 | 16 | 231 | 16.1 | 37.0 | 0.00 | 0.00 | 0.00 | 25 | 1011.4 |
| 20260505213005 | 16 | 207 | 27.4 | 37.0 | 0.00 | 0.00 | 0.00 | 25 | 1011.4 |
| 20260505212505 | 16 | 259 | 19.3 | 33.8 | 0.00 | 0.00 | 0.00 | 25 | 1011.4 |
| 20260505212005 | 16 | 249 | 19.3 | 38.6 | 0.00 | 0.00 | 0.00 | 26 | 1011.4 |
| 20260505211005 | 16 | 209 | 22.5 | 37.0 | 0.00 | 0.00 | 0.00 | 24 | 1011.4 |
| 20260505210504 | 16 | 227 | 17.7 | 29.0 | 0.00 | 0.00 | 0.00 | 25 | 1011.4 |
| 20260505210005 | 16 | 221 | 19.3 | 33.8 | 0.00 | 0.00 | 0.00 | 25 | 1011.5 |
| 20260505205505 | 16 | 228 | 25.7 | 33.8 | 0.00 | 0.00 | 0.00 | 25 | 1012.2 |
| 20260505205005 | 16 | 202 | 16.1 | 41.8 | 0.00 | 0.00 | 0.00 | 25 | 1012.2 |
| 20260505204505 | 16 | 197 | 25.7 | 41.8 | 0.00 | 0.00 | 0.00 | 26 | 1012.2 |
| 20260505204005 | 15 | 206 | 16.1 | 33.8 | 0.00 | 0.00 | 0.00 | 26 | 1012.2 |
| 20260505203505 | 16 | 210 | 20.9 | 35.4 | 0.00 | 0.00 | 0.00 | 25 | 1012.2 |
| 20260505203005 | 16 | 216 | 25.7 | 35.4 | 0.00 | 0.00 | 0.00 | 26 | 1012.2 |
| 20260505202505 | 15 | 217 | 11.3 | 27.4 | 0.00 | 0.00 | 0.00 | 26 | 1012.2 |
| 20260505202005 | 15 | 193 | 16.1 | 25.7 | 0.00 | 0.00 | 0.00 | 26 | 1012.2 |
| 20260505201505 | 16 | 169 | 19.3 | 33.8 | 0.00 | 0.00 | 0.00 | 25 | 1012.2 |
| 20260505201004 | 16 | 182 | 19.3 | 33.8 | 0.00 | 0.00 | 0.00 | 25 | 1012.2 |
| 20260505200504 | 16 | 196 | 29.0 | 33.8 | 0.00 | 0.00 | 0.00 | 26 | 1012.2 |
| 20260505200005 | 15 | 187 | 16.1 | 25.7 | 0.00 | 0.00 | 0.00 | 27 | 1012.2 |
| 20260505195505 | 15 | 186 | 12.9 | 32.2 | 0.00 | 0.00 | 0.00 | 27 | 1012.2 |
| 20260505195005 | 15 | 202 | 20.9 | 32.2 | 0.00 | 0.00 | 0.00 | 27 | 1012.2 |
| 20260505194505 | 15 | 198 | 19.3 | 32.2 | 0.00 | 0.00 | 0.00 | 28 | 1012.2 |
| 20260505194005 | 15 | 187 | 19.3 | 32.2 | 0.00 | 0.00 | 0.00 | 27 | 1012.3 |
| 20260505193505 | 15 | 186 | 19.3 | 32.2 | 0.00 | 0.00 | 0.00 | 27 | 1012.3 |
| 20260505193005 | 15 | 211 | 24.1 | 32.2 | 0.00 | 0.00 | 0.00 | 27 | 1012.6 |
| 20260505192505 | 16 | 221 | 22.5 | 32.2 | 0.00 | 0.00 | 0.00 | 28 | 1012.6 |
| 20260505191504 | 15 | 230 | 19.3 | 32.2 | 0.00 | 0.00 | 0.00 | 30 | 1012.6 |
| 20260505191005 | 15 | 226 | 9.7 | 32.2 | 0.00 | 0.00 | 0.00 | 29 | 1012.6 |
| 20260505190505 | 15 | 247 | 11.3 | 27.4 | 0.00 | 0.00 | 0.00 | 30 | 1012.7 |
| 20260505185005 | 14 | 245 | 14.5 | 22.5 | 0.00 | 0.00 | 0.00 | 30 | 1013.0 |
| 20260505183004 | 13 | 268 | 3.2 | 25.7 | 0.00 | 0.00 | 0.00 | 29 | 1012.9 |
| 20260505182504 | 14 | 259 | 17.7 | 25.7 | 0.00 | 0.00 | 0.00 | 29 | 1012.9 |
| 20260505182005 | 15 | 244 | 4.8 | 19.3 | 0.00 | 0.00 | 0.00 | 31 | 1013.2 |
| 20260505181505 | 14 | 180 | 4.8 | 20.9 | 0.00 | 0.00 | 0.00 | 32 | 1013.2 |
| 20260505181005 | 14 | 187 | 14.5 | 20.9 | 0.00 | 0.00 | 0.00 | 32 | 1013.2 |
| 20260505180505 | 13 | 272 | 8.0 | 20.9 | 0.00 | 0.00 | 0.00 | 31 | 1013.4 |
| 20260505180004 | 13 | 275 | 12.9 | 22.5 | 0.00 | 0.00 | 0.00 | 31 | 1013.4 |
| 20260505175505 | 13 | 270 | 16.1 | 22.5 | 0.00 | 0.00 | 0.00 | 33 | 1013.4 |
| 20260505175005 | 13 | 247 | 9.7 | 19.3 | 0.00 | 0.00 | 0.00 | 33 | 1013.3 |
| 20260505174005 | 12 | 258 | 6.4 | 14.5 | 0.00 | 0.00 | 0.00 | 31 | 1013.5 |
| 20260505173505 | 12 | 237 | 9.7 | 19.3 | 0.00 | 0.00 | 0.00 | 31 | 1013.5 |
| 20260505172505 | 13 | 217 | 17.7 | 25.7 | 0.00 | 0.00 | 0.00 | 29 | 1013.4 |
| 20260505172005 | 13 | 291 | 3.2 | 20.9 | 0.00 | 0.00 | 0.00 | 30 | 1013.4 |
| 20260505171505 | 12 | 198 | 11.3 | 25.7 | 0.00 | 0.00 | 0.00 | 31 | 1013.5 |
| 20260505165505 | 11 | 254 | 8.0 | 14.5 | 0.00 | 0.00 | 0.00 | 36 | 1013.5 |
| 20260505165005 | 11 | 185 | 9.7 | 14.5 | 0.00 | 0.00 | 0.00 | 36 | 1013.5 |
| 20260505164504 | 11 | 223 | 3.2 | 11.3 | 0.00 | 0.00 | 0.00 | 35 | 1013.6 |
| 20260505164005 | 11 | 242 | 4.8 | 12.9 | 0.00 | 0.00 | 0.00 | 35 | 1013.6 |
| 20260505163504 | 11 | 220 | 8.0 | 16.1 | 0.00 | 0.00 | 0.00 | 35 | 1013.6 |
| 20260505163005 | 11 | 221 | 11.3 | 19.3 | 0.00 | 0.00 | 0.00 | 35 | 1013.8 |
| 20260505162004 | 11 | 224 | 11.3 | 19.3 | 0.00 | 0.00 | 0.00 | 36 | 1013.8 |
| 20260505161505 | 11 | 171 | 4.8 | 19.3 | 0.00 | 0.00 | 0.00 | 37 | 1013.7 |
| 20260505161005 | 11 | 180 | 4.8 | 19.3 | 0.00 | 0.00 | 0.00 | 39 | 1013.9 |
| 20260505160504 | 11 | 188 | 8.0 | 19.3 | 0.00 | 0.00 | 0.00 | 37 | 1013.9 |
| 20260505152504 | 10 | 192 | 8.0 | 19.3 | 0.00 | 0.00 | 0.00 | 39 | 1013.8 |
| 20260505152004 | 10 | 209 | 11.3 | 19.3 | 0.00 | 0.00 | 0.00 | 41 | 1013.8 |
| 20260505151505 | 9 | 175 | 11.3 | 16.1 | 0.00 | 0.00 | 0.00 | 41 | 1013.8 |
| 20260505151004 | 9 | 162 | 9.7 | 16.1 | 0.00 | 0.00 | 0.00 | 40 | 1013.8 |
| 20260505150504 | 9 | 169 | 9.7 | 16.1 | 0.00 | 0.00 | 0.00 | 41 | 1013.8 |
| 20260505140505 | 8 | 172 | 6.4 | 9.7 | 0.00 | 0.00 | 0.00 | 41 | 1014.7 |
| 20260505125005 | 8 | 160 | 12.9 | 19.3 | 0.00 | 0.00 | 0.00 | 40 | 1014.9 |
| 20260505124004 | 8 | 160 | 9.7 | 16.1 | 0.00 | 0.00 | 0.00 | 40 | 1014.8 |
| 20260505123505 | 8 | 170 | 8.0 | 16.1 | 0.00 | 0.00 | 0.00 | 40 | 1014.7 |
| 20260505123005 | 7 | 159 | 9.7 | 16.1 | 0.00 | 0.00 | 0.00 | 41 | 1014.7 |
| 20260505122504 | 7 | 168 | 4.8 | 11.3 | 0.00 | 0.00 | 0.00 | 41 | 1015.0 |
| 20260505121505 | 8 | 165 | 8.0 | 11.3 | 0.00 | 0.00 | 0.00 | 40 | 1015.0 |
| 20260505121005 | 8 | 174 | 8.0 | 9.7 | 0.00 | 0.00 | 0.00 | 40 | 1015.0 |
| 20260505120504 | 8 | 180 | 4.8 | 11.3 | 0.00 | 0.00 | 0.00 | 40 | 1015.0 |
| 20260505120005 | 8 | 186 | 9.7 | 14.5 | 0.00 | 0.00 | 0.00 | 40 | 1015.0 |
| 20260505115504 | 8 | 204 | 9.7 | 14.5 | 0.00 | 0.00 | 0.00 | 39 | 1015.2 |
| 20260505115005 | 7 | 177 | 9.7 | 14.5 | 0.00 | 0.00 | 0.00 | 41 | 1015.2 |
| 20260505113005 | 5 | 102 | 3.2 | 8.0 | 0.00 | 0.00 | 0.00 | 50 | 1014.5 |
| 20260505112504 | 4 | 53 | 1.6 | 3.2 | 0.00 | 0.00 | 0.00 | 52 | 1014.5 |
| 20260505112005 | 5 | 53 | 1.6 | 4.8 | 0.00 | 0.00 | 0.00 | 51 | 1014.5 |
| 20260505111504 | 5 | 53 | 1.6 | 4.8 | 0.00 | 0.00 | 0.00 | 51 | 1014.5 |
| 20260505111004 | 5 | 53 | 4.8 | 4.8 | 0.00 | 0.00 | 0.00 | 50 | 1014.5 |
| 20260505110504 | 5 | 71 | 1.6 | 9.7 | 0.00 | 0.00 | 0.00 | 50 | 1014.5 |
| 20260505102004 | 6 | 152 | 4.8 | 9.7 | 0.00 | 0.00 | 0.00 | 41 | 1014.3 |
| 20260505101505 | 6 | 155 | 4.8 | 8.0 | 0.00 | 0.00 | 0.00 | 42 | 1014.3 |
| 20260505101004 | 6 | 190 | 1.6 | 4.8 | 0.00 | 0.00 | 0.00 | 44 | 1014.3 |
| 20260505100505 | 6 | 171 | 3.2 | 4.8 | 0.00 | 0.00 | 0.00 | 43 | 1014.3 |
| 20260505100004 | 6 | 55 | 1.6 | 3.2 | 0.00 | 0.00 | 0.00 | 43 | 1014.3 |
| 20260505094504 | 7 | 54 | 1.6 | 4.8 | 0.00 | 0.00 | 0.00 | 39 | 1014.3 |
| 20260505094005 | 7 | 54 | 0.0 | 4.8 | 0.00 | 0.00 | 0.00 | 39 | 1014.3 |
| 20260505093504 | 8 | 54 | 3.2 | 4.8 | 0.00 | 0.00 | 0.00 | 37 | 1014.3 |
| 20260505093005 | 8 | 64 | 3.2 | 4.8 | 0.00 | 0.00 | 0.00 | 36 | 1014.5 |
| 20260505092004 | 8 | 159 | 4.8 | 14.5 | 0.00 | 0.00 | 0.00 | 34 | 1014.4 |
| 20260505091005 | 9 | 179 | 9.7 | 19.3 | 0.00 | 0.00 | 0.00 | 33 | 1014.4 |
| 20260505090505 | 9 | 180 | 9.7 | 22.5 | 0.00 | 0.00 | 0.00 | 33 | 1014.2 |
| 20260505090004 | 9 | 197 | 9.7 | 22.5 | 0.00 | 0.00 | 0.00 | 33 | 1014.2 |
| 20260505085504 | 9 | 174 | 14.5 | 27.4 | 0.00 | 0.00 | 0.00 | 32 | 1014.1 |
| 20260505085004 | 9 | 179 | 16.1 | 27.4 | 0.00 | 0.00 | 0.00 | 32 | 1014.1 |
| 20260505084504 | 9 | 174 | 19.3 | 27.4 | 0.00 | 0.00 | 0.00 | 31 | 1014.7 |
| 20260505084004 | 9 | 175 | 16.1 | 25.7 | 0.00 | 0.00 | 0.00 | 32 | 1014.7 |
| 20260505083504 | 9 | 183 | 17.7 | 25.7 | 0.00 | 0.00 | 0.00 | 32 | 1014.7 |
| 20260505083005 | 9 | 179 | 16.1 | 25.7 | 0.00 | 0.00 | 0.00 | 32 | 1014.7 |
| 20260505082504 | 9 | 183 | 12.9 | 19.3 | 0.00 | 0.00 | 0.00 | 32 | 1014.7 |
| 20260505082004 | 9 | 178 | 14.5 | 16.1 | 0.00 | 0.00 | 0.00 | 32 | 1014.6 |
| 20260505081004 | 9 | 180 | 9.7 | 16.1 | 0.00 | 0.00 | 0.00 | 32 | 1014.8 |
| 20260505080504 | 10 | 179 | 11.3 | 20.9 | 0.00 | 0.00 | 0.00 | 31 | 1014.8 |
| 20260505080004 | 10 | 176 | 14.5 | 20.9 | 0.00 | 0.00 | 0.00 | 31 | 1014.8 |
| 20260505075504 | 10 | 170 | 14.5 | 20.9 | 0.00 | 0.00 | 0.00 | 31 | 1014.8 |
| 20260505075005 | 10 | 167 | 12.9 | 16.1 | 0.00 | 0.00 | 0.00 | 31 | 1014.9 |
| 20260505074004 | 10 | 189 | 11.3 | 19.3 | 0.00 | 0.00 | 0.00 | 33 | 1015.0 |
| 20260505073004 | 10 | 179 | 9.7 | 19.3 | 0.00 | 0.00 | 0.00 | 33 | 1015.0 |
| 20260505072504 | 10 | 173 | 12.9 | 19.3 | 0.00 | 0.03 | 0.00 | 32 | 1015.0 |
| 20260505072004 | 10 | 168 | 11.3 | 19.3 | 0.00 | 0.03 | 0.00 | 32 | 1015.0 |
| 20260505071504 | 10 | 165 | 9.7 | 14.5 | 0.00 | 0.03 | 0.00 | 34 | 1014.9 |
| 20260505071005 | 10 | 164 | 9.7 | 12.9 | 0.00 | 0.03 | 0.00 | 34 | 1014.9 |
| 20260505070504 | 9 | 168 | 8.0 | 11.3 | 0.00 | 0.03 | 0.00 | 35 | 1014.9 |
| 20260505070004 | 8 | 164 | 6.4 | 9.7 | 0.00 | 0.03 | 0.00 | 37 | 1014.9 |
| 20260505065504 | 8 | 174 | 3.2 | 9.7 | 0.00 | 0.03 | 0.00 | 38 | 1014.9 |
| 20260505063504 | 9 | 197 | 8.0 | 14.5 | 0.00 | 0.03 | 0.00 | 38 | 1014.4 |
| 20260505063004 | 8 | 196 | 8.0 | 14.5 | 0.00 | 0.03 | 0.00 | 40 | 1014.4 |
| 20260505062504 | 7 | 180 | 4.8 | 11.3 | 0.00 | 0.03 | 0.00 | 42 | 1014.4 |
| 20260505061504 | 6 | 87 | 0.0 | 4.8 | 0.00 | 0.03 | 0.00 | 50 | 1014.4 |
| 20260505061004 | 6 | 31 | 1.6 | 4.8 | 0.00 | 0.03 | 0.00 | 50 | 1014.3 |
| 20260505060504 | 7 | 156 | 3.2 | 4.8 | 0.00 | 0.03 | 0.00 | 47 | 1014.2 |
| 20260505060005 | 7 | 42 | 0.0 | 4.8 | 0.00 | 0.03 | 0.00 | 48 | 1014.6 |
| 20260505055505 | 7 | 42 | 1.6 | 4.8 | 0.00 | 0.03 | 0.03 | 48 | 1014.6 |
| 20260505055006 | 7 | 31 | 0.0 | 9.7 | 0.00 | 0.03 | 0.03 | 47 | 1014.6 |
| 20260505054505 | 7 | 30 | 3.2 | 9.7 | 0.00 | 0.03 | 0.03 | 47 | 1014.4 |
| 20260505054005 | 7 | 74 | 4.8 | 8.0 | 0.00 | 0.03 | 0.03 | 47 | 1014.4 |
| 20260505053005 | 7 | 25 | 4.8 | 9.7 | 0.00 | 0.03 | 0.03 | 48 | 1014.4 |
| 20260505052505 | 7 | 55 | 4.8 | 9.7 | 0.00 | 0.03 | 0.03 | 48 | 1014.1 |
| 20260505052005 | 7 | 37 | 8.0 | 9.7 | 0.00 | 0.03 | 0.03 | 49 | 1014.1 |
| 20260505051505 | 7 | 37 | 8.0 | 9.7 | 0.00 | 0.03 | 0.03 | 49 | 1014.4 |
| 20260505051005 | 7 | 40 | 6.4 | 9.7 | 0.00 | 0.03 | 0.03 | 49 | 1014.4 |
| 20260505050505 | 7 | 39 | 8.0 | 9.7 | 0.00 | 0.03 | 0.03 | 48 | 1014.4 |
| 20260505041505 | 7 | 46 | 4.8 | 4.8 | 0.00 | 0.03 | 0.03 | 48 | 1014.4 |
| 20260505041005 | 7 | 45 | 4.8 | 4.8 | 0.00 | 0.03 | 0.03 | 48 | 1014.4 |
| 20260505040505 | 7 | 33 | 1.6 | 4.8 | 0.00 | 0.03 | 0.03 | 48 | 1014.3 |
| 20260505040006 | 7 | 40 | 3.2 | 8.0 | 0.00 | 0.03 | 0.03 | 47 | 1014.3 |
| 20260505035505 | 7 | 48 | 6.4 | 9.7 | 0.00 | 0.03 | 0.03 | 46 | 1014.3 |
| 20260505035006 | 7 | 48 | 8.0 | 9.7 | 0.00 | 0.03 | 0.03 | 45 | 1014.3 |
| 20260505034005 | 7 | 40 | 4.8 | 8.0 | 0.00 | 0.03 | 0.03 | 45 | 1014.2 |
| 20260505033506 | 7 | 34 | 3.2 | 8.0 | 0.00 | 0.03 | 0.03 | 46 | 1014.2 |
| 20260505033005 | 7 | 44 | 6.4 | 8.0 | 0.00 | 0.03 | 0.03 | 45 | 1014.2 |
| 20260505032506 | 8 | 39 | 6.4 | 8.0 | 0.00 | 0.03 | 0.03 | 45 | 1013.9 |
| 20260505032005 | 8 | 42 | 4.8 | 9.7 | 0.00 | 0.03 | 0.03 | 44 | 1013.9 |
| 20260505031506 | 8 | 39 | 8.0 | 9.7 | 0.00 | 0.03 | 0.03 | 44 | 1013.9 |
| 20260505031006 | 8 | 42 | 8.0 | 9.7 | 0.00 | 0.03 | 0.03 | 43 | 1013.9 |
| 20260505030505 | 8 | 42 | 8.0 | 9.7 | 0.00 | 0.03 | 0.03 | 44 | 1013.8 |
| 20260505030005 | 8 | 45 | 6.4 | 8.0 | 0.00 | 0.03 | 0.03 | 44 | 1013.8 |
| 20260505025005 | 9 | 41 | 6.4 | 8.0 | 0.00 | 0.03 | 0.03 | 43 | 1013.9 |
| 20260505024505 | 9 | 182 | 3.2 | 4.8 | 0.00 | 0.03 | 0.03 | 43 | 1013.9 |
| 20260505023505 | 10 | 182 | 4.8 | 4.8 | 0.00 | 0.03 | 0.03 | 40 | 1013.9 |
| 20260505023006 | 11 | 182 | 4.8 | 4.8 | 0.00 | 0.03 | 0.03 | 39 | 1013.8 |
| 20260505022505 | 11 | 182 | 3.2 | 3.2 | 0.00 | 0.03 | 0.03 | 36 | 1013.8 |
| 20260505022006 | 12 | 182 | 0.0 | 1.6 | 0.00 | 0.03 | 0.03 | 33 | 1013.8 |
| 20260505021505 | 13 | 182 | 0.0 | 4.8 | 0.00 | 0.03 | 0.03 | 31 | 1013.8 |
| 20260505021006 | 13 | 182 | 1.6 | 4.8 | 0.00 | 0.03 | 0.03 | 30 | 1013.6 |
| 20260505020506 | 13 | 182 | 3.2 | 4.8 | 0.00 | 0.03 | 0.03 | 27 | 1013.6 |
| 20260505020004 | 13 | 192 | 4.8 | 4.8 | 0.00 | 0.03 | 0.03 | 27 | 1013.7 |
| 20260505015005 | 14 | 192 | 4.8 | 4.8 | 0.00 | 0.03 | 0.03 | 27 | 1013.7 |
| 20260505014505 | 14 | 200 | 4.8 | 4.8 | 0.00 | 0.03 | 0.03 | 27 | 1013.7 |
| 20260505014005 | 14 | 200 | 4.8 | 4.8 | 0.00 | 0.03 | 0.03 | 27 | 1013.7 |
| 20260505013005 | 14 | 207 | 3.2 | 4.8 | 0.00 | 0.03 | 0.03 | 28 | 1013.7 |
| 20260505012505 | 15 | 207 | 3.2 | 8.0 | 0.00 | 0.03 | 0.03 | 28 | 1013.7 |
| 20260505012005 | 15 | 216 | 4.8 | 8.0 | 0.00 | 0.03 | 0.03 | 27 | 1013.6 |
| 20260505011505 | 15 | 240 | 4.8 | 9.7 | 0.00 | 0.03 | 0.03 | 28 | 1013.6 |
| 20260505011006 | 15 | 240 | 3.2 | 9.7 | 0.00 | 0.03 | 0.03 | 28 | 1013.6 |
| 20260505010505 | 15 | 230 | 6.4 | 11.3 | 0.00 | 0.03 | 0.03 | 26 | 1013.7 |
| 20260505010005 | 15 | 232 | 8.0 | 14.5 | 0.00 | 0.03 | 0.03 | 26 | 1013.6 |
| 20260505005505 | 15 | 235 | 9.7 | 16.1 | 0.00 | 0.03 | 0.03 | 25 | 1013.6 |